Peoria, IL

5:34 AM CST on November 14, 2019 (GMT -0600)
Greater Peoria Regional

Weather History for KPIA - September, 2019

Change the Weather History Date:

Friday, September 13, 2019

  Actual Average Record
Temperature  
Mean Temperature 70 °F 67 °F  
Max Temperature 79 °F 78 °F 99 °F (1939)
Min Temperature 61 °F 57 °F 37 °F (1902)
Degree Days  
Heating Degree Days 0 2  
Month to date heating degree days 0 14  
Since 1 July heating degree days 0 20  
Cooling Degree Days 5 4  
Month to date cooling degree days 96 73  
Year to date cooling degree days 1078 980  
Growing Degree Days 20 (Base 50)    
Moisture  
Dew Point 63 °F    
Average Humidity 75    
Maximum Humidity 97    
Minimum Humidity 53    
Precipitation  
Precipitation 0.06 in 0.11 in 4.11 in (1961)
Month to date precipitation 1.43 1.44  
Year to date precipitation 34.95 26.39  
Snow  
Snow 0.00 in 0.00 in 0.00 in ()
Month to date snowfall 0.0 0.0  
Since 1 July snowfall 0.0 0.0  
Since 1 September snowfall 0.0 0.0  
Snow Depth 0.00 in    
Sea Level Pressure  
Sea Level Pressure 30.06 in    
Wind  
Wind Speed 9 mph ()    
Max Wind Speed 22 mph    
Max Gust Speed 29 mph    
Visibility 9.6 miles    
Events Rain , Thunderstorm    
T = Trace of Precipitation, MM = Missing Value Source: Averaged Metar Reports

Daily Weather History Graph

Daily Weather History Graph

Search for Another Location

Airport or City:

Astronomy

Sep. 13, 2019 Rise Set
Actual Time 6:37 AM CDT 7:11 PM CDT
Civil Twilight 6:09 AM CDT 7:38 PM CDT
Nautical Twilight 5:37 AM CDT 8:11 PM CDT
Astronomical Twilight 5:03 AM CDT 8:44 PM CDT
Moon 7:25 PM CDT (9/13) 5:53 AM CDT (9/13)
Length of Visible Light 13h 29m
Length of Day
12h 34m
Full, 100% of the Moon is Illuminated
Sep 13
Full
Sep 13
Full
Sep 21
Last Quarter
Sep 28
New
Oct 5
First Quarter

Hourly Weather History & Observations

Time (CDT) Temp. Dew Point Humidity Pressure Visibility Wind Dir Wind Speed Gust Speed Precip Events Conditions
12:54 AM 78.1 °F 70.0 °F 76% 29.95 in 10.0 mi South 15.0 mph - N/A   Scattered Clouds
1:12 AM 78.1 °F 70.0 °F 76% 29.97 in 10.0 mi South 15.0 mph - N/A Thunderstorm Mostly Cloudy
1:27 AM 77.0 °F 70.0 °F 79% 29.97 in 7.0 mi SSW 10.4 mph 21.9 mph 0.01 in Rain Light Rain
1:54 AM 75.9 °F 70.0 °F 82% 29.96 in 8.0 mi SSW 11.5 mph 28.8 mph 0.03 in Rain Light Rain
2:51 AM 75.2 °F 69.8 °F 83% 29.97 in 10.0 mi SW 9.2 mph - 0.00 in   Overcast
2:54 AM 75.0 °F 70.0 °F 84% 29.96 in 10.0 mi SW 8.1 mph - 0.00 in   Overcast
3:12 AM 75.0 °F 70.0 °F 84% 29.98 in 8.0 mi WSW 11.5 mph - 0.00 in Rain , Thunderstorm Light Rain
3:29 AM 75.0 °F 71.1 °F 87% 29.99 in 10.0 mi West 10.4 mph - 0.00 in   Overcast
3:54 AM 73.0 °F 71.1 °F 93% 29.99 in 4.0 mi NNW 4.6 mph - 0.01 in Rain Rain
4:13 AM 72.0 °F 69.1 °F 91% 30.00 in 10.0 mi NNW 3.5 mph - 0.02 in   Overcast
4:54 AM 71.1 °F 66.9 °F 87% 29.99 in 10.0 mi Calm Calm - 0.02 in   Overcast
5:54 AM 71.1 °F 68.0 °F 90% 30.01 in 10.0 mi SW 4.6 mph - N/A   Partly Cloudy
6:54 AM 70.0 °F 68.0 °F 93% 30.03 in 10.0 mi SW 5.8 mph - N/A   Partly Cloudy
7:54 AM 71.1 °F 68.0 °F 90% 30.04 in 10.0 mi West 6.9 mph - N/A   Clear
8:54 AM 72.0 °F 66.0 °F 81% 30.06 in 10.0 mi West 10.4 mph - N/A   Scattered Clouds
9:54 AM 73.9 °F 61.0 °F 64% 30.07 in 10.0 mi West 12.7 mph 21.9 mph N/A   Clear
10:54 AM 75.0 °F 59.0 °F 57% 30.08 in 10.0 mi West 17.3 mph - N/A   Clear
11:54 AM 75.0 °F 59.0 °F 57% 30.09 in 10.0 mi WSW 13.8 mph - N/A   Partly Cloudy
12:54 PM 75.0 °F 60.1 °F 60% 30.10 in 10.0 mi West 11.5 mph 23.0 mph N/A   Mostly Cloudy
1:54 PM 75.0 °F 57.9 °F 55% 30.10 in 10.0 mi WSW 18.4 mph 26.5 mph N/A   Scattered Clouds
2:54 PM 73.9 °F 55.9 °F 53% 30.10 in 10.0 mi WSW 11.5 mph 23.0 mph N/A   Partly Cloudy
3:54 PM 73.0 °F 55.9 °F 55% 30.11 in 10.0 mi West 12.7 mph 27.6 mph N/A   Partly Cloudy
4:54 PM 72.0 °F 55.9 °F 57% 30.12 in 10.0 mi West 12.7 mph 21.9 mph N/A   Clear
5:54 PM 72.0 °F 55.9 °F 57% 30.12 in 10.0 mi WSW 9.2 mph - N/A   Clear
6:54 PM 70.0 °F 57.0 °F 63% 30.12 in 10.0 mi West 8.1 mph - N/A   Partly Cloudy
7:54 PM 66.9 °F 57.0 °F 70% 30.14 in 10.0 mi WSW 4.6 mph - N/A   Clear
8:54 PM 64.0 °F 57.0 °F 78% 30.15 in 10.0 mi SW 5.8 mph - N/A   Clear
9:54 PM 64.0 °F 57.0 °F 78% 30.16 in 10.0 mi WSW 4.6 mph - N/A   Clear
10:54 PM 61.0 °F 55.9 °F 83% 30.17 in 10.0 mi SW 4.6 mph - N/A   Clear
11:54 PM 62.1 °F 57.0 °F 84% 30.18 in 10.0 mi WSW 4.6 mph - N/A   Clear